Location: Bieg
(49.3499°N, 10.3835°E)
Time: 21:07:02
(UTC+00:00)

DELTA 2 R/B (1) - Pass Details

Date: 23 May 2024
Orbit: 789 x 801 km, 39.6° (Epoch: 23 June)

Event Time Altitude Azimuth Distance (km) Brightness Sun altitude
Exits shadow 00:26:15 29° 170° (S) 1,408 4.4 -18.3°
Drops below altitude 10° 00:30:45 10° 116° (ESE) 2,350 5.9 -18.0°
Sets 00:33:29 0° 106° (ESE) 3,278 6.8 -17.9°
